Location: Rometta
(44.2000°N, 10.0500°E)
Time: 10:26:03
(UTC+00:00)

Cosmos 1844 - Visible Passes

Search period start: 13 May 2021 00:00
Search period end: 23 May 2021 00:00
Orbit: 824 x 867 km, 70.9° (Epoch: 13 May)

Date Brightness Start Highest point End Pass type
(mag) Time Alt. Az. Time Alt. Az. Time Alt. Az.
13 May 7.3 02:06:54 10° NNE 02:07:44 10° NE 02:08:35 10° NE visible
13 May 6.4 20:27:13 10° W 20:31:26 21° NW 20:35:38 10° N visible
14 May 7.4 01:53:26 10° NNE 01:53:42 10° NE 01:53:58 10° NE visible
14 May 6.5 20:13:07 10° W 20:17:24 21° NW 20:21:40 10° N visible
15 May 6.5 19:59:02 10° W 20:03:23 22° NW 20:07:42 10° N visible
16 May 5.1 03:05:59 10° NNW 03:11:18 44° ENE 03:16:37 10° SE visible
16 May 6.5 19:44:57 10° W 19:49:21 22° NW 19:53:44 10° N visible
17 May 5.1 02:51:59 10° NNW 02:57:18 43° ENE 03:02:34 10° SE visible
17 May 6.5 19:30:53 10° W 19:35:19 23° NW 19:39:45 10° N visible
18 May 5.1 02:37:59 10° NNW 02:43:17 42° ENE 02:48:31 10° SE visible
18 May 6.5 19:16:48 10° WSW 19:21:18 23° NW 19:25:47 10° N visible
19 May 5.1 02:24:00 10° NNW 02:29:16 41° ENE 02:34:29 10° SE visible
20 May 5.1 02:10:01 10° NNW 02:15:15 40° ENE 02:20:26 10° SE visible
21 May 5.2 01:56:02 10° NNW 02:01:14 39° NE 02:06:24 10° SE visible
22 May 5.2 01:42:02 10° NNW 01:47:12 37° NE 01:52:20 10° ESE visible
